sat.trackr.live / text

‹ back to catalog

STARLINK-30462

NORAD 57902 · 2023-146M

PAYLOAD ACTIVE UNKNOWN

§ Identity

Operator
Country
US
Launch date
2023-09-20
Launch site
AFETR
Launch vehicle
Mass (kg)
RCS (m²)

Purposes: comms

External: N2YO · Heavens-Above · Gunter

§ Orbital elements

Epoch: 2026-05-24T17:35:13.519104Z

Period
94.27 min
Inclination
43.0065°
Eccentricity
0.0002589
Mean motion
15.27579950 rev/d
Perigee alt
481.3 km
Apogee alt
484.8 km
Semi-major
6,861.2 km
B*
1.2498e-4
RAAN
244.9587°
Arg perigee
278.9395°
Mean anomaly
81.1163°
Rev number
14,864

§ Raw data

STARLINK-304621 57902U 23146M   26144.73279536  .00003178  00000+0  12498-3 0  99932 57902  43.0065 244.9587 0002589 278.9395  81.1163 15.27579950148642

JSON: /api/v1/satellites/57902 · /tle

For live sub-satellite position, see the globe view (requires WebGL).

§ Visibility from observer

Set your observer location to see the next 7 days of passes ≥ 10°. The values pass through the URL so the page stays shareable.

No JS? Fill the form by hand. The geolocation button needs JavaScript.